User: anonymous   Login
Location: Newark
(46.2031°N, 3.4731°E)
Time: 21:44:28
(UTC+00:00)
Language:

Envisat - Orbit

View from above orbital plane
View from above orbital plane
View from above satellite
View from above satellite

Ground track
Ground track

The orbit data is extracted from the following two-line orbital elements,

1 27386U 02009A   19288.46311381 -.00000012  00000-0  93371-5 0  9994
2 27386  98.1453 303.3894 0001166  92.5422  46.0870 14.37959677923261
Epoch (UTC): 15 October 2019 11:06:53
Eccentricity: 0.0001166
inclination: 98.1453°
perigee height: 764 km
apogee height: 766 km
right ascension of ascending node: 303.3894°
argument of perigee: 92.5422°
revolutions per day: 14.37959677
mean anomaly at epoch: 46.0870°
orbit number at epoch: 92326

The dashed part of the orbit path shows where the satellite is in the earth's shadow,  

DLR